• In Italy
  • List of Countries
  • For 7 days
  • Water Temperature
  • Satellite Maps
  • Weather Map
  • Weather Widgets
  • user-avatar
    Login

    Hourly Weather Elsukovo

    Today, 25 May, Friday

    Time Temperature Precipitation Wind Pressure Humidity
    00:00 +12°C° 0 mm 3 mps 750 mmHg 73%
    01:00 +11°C° 0 mm 4 mps 750 mmHg 70%
    02:00 +10°C° 0 mm 4 mps 750 mmHg 66%
    03:00 +8°C° 0 mm 4 mps 750 mmHg 63%
    04:00 +8°C° 0 mm 4 mps 750 mmHg 62%
    05:00 +8°C° 0 mm 5 mps 750 mmHg 61%
    06:00 +8°C° 0 mm 5 mps 751 mmHg 59%
    07:00 +9°C° 0 mm 5 mps 751 mmHg 54%
    08:00 +10°C° 0 mm 6 mps 751 mmHg 50%
    09:00 +11°C° 0 mm 6 mps 751 mmHg 45%
    10:00 +11°C° 0 mm 6 mps 751 mmHg 44%
    11:00 +11°C° 0 mm 7 mps 752 mmHg 42%
    12:00 +12°C° 0 mm 7 mps 752 mmHg 41%
    13:00 +11°C° 0 mm 7 mps 752 mmHg 41%
    14:00 +11°C° 0 mm 7 mps 752 mmHg 40%
    15:00 +11°C° 0 mm 7 mps 753 mmHg 40%
    16:00 +10°C° 0 mm 6 mps 753 mmHg 42%
    17:00 +10°C° 0 mm 5 mps 753 mmHg 44%
    18:00 +10°C° 0 mm 5 mps 754 mmHg 46%
    19:00 +8°C° 0 mm 4 mps 754 mmHg 49%
    20:00 +7°C° 0 mm 4 mps 754 mmHg 51%
    21:00 +6°C° 0 mm 4 mps 755 mmHg 54%
    22:00 +5°C° 0 mm 4 mps 755 mmHg 56%
    23:00 +5°C° 0 mm 4 mps 756 mmHg 57%

    Tomorrow, 26 May, Saturday

    Time Temperature Precipitation Wind Pressure Humidity
    00:00 +4°C° 0 mm 4 mps 756 mmHg 59%
    01:00 +3°C° 0 mm 4 mps 757 mmHg 60%
    02:00 +3°C° 0 mm 4 mps 757 mmHg 61%
    03:00 +2°C° 0 mm 3 mps 758 mmHg 63%
    04:00 +3°C° 0 mm 4 mps 758 mmHg 60%
    05:00 +4°C° 0 mm 4 mps 759 mmHg 57%
    06:00 +5°C° 0 mm 4 mps 759 mmHg 54%
    07:00 +6°C° 0 mm 5 mps 759 mmHg 50%
    08:00 +7°C° 0 mm 5 mps 760 mmHg 46%
    09:00 +9°C° 0 mm 5 mps 760 mmHg 42%
    10:00 +10°C° 0 mm 5 mps 760 mmHg 40%
    11:00 +12°C° 0 mm 5 mps 760 mmHg 39%
    12:00 +13°C° 0 mm 5 mps 760 mmHg 37%
    13:00 +13°C° 0 mm 4 mps 759 mmHg 37%
    14:00 +14°C° 0 mm 4 mps 759 mmHg 36%
    15:00 +14°C° 0 mm 4 mps 759 mmHg 36%
    16:00 +14°C° 0 mm 3 mps 759 mmHg 40%
    17:00 +14°C° 0 mm 3 mps 759 mmHg 43%
    18:00 +15°C° 0 mm 2 mps 758 mmHg 47%
    19:00 +13°C° 0 mm 2 mps 758 mmHg 51%
    20:00 +10°C° 0 mm 2 mps 758 mmHg 54%
    21:00 +9°C° 0 mm 2 mps 758 mmHg 58%
    22:00 +9°C° 0 mm 3 mps 758 mmHg 57%
    23:00 +7°C° 0 mm 4 mps 758 mmHg 56%

    Day after tomorrow, 27 May, Sunday

    Time Temperature Precipitation Wind Pressure Humidity
    00:00 +7°C° 0 mm 4 mps 757 mmHg 56%
    01:00 +7°C° 0 mm 5 mps 757 mmHg 56%
    02:00 +7°C° 0 mm 5 mps 756 mmHg 57%
    03:00 +8°C° 0 mm 5 mps 756 mmHg 58%
    04:00 +9°C° 0 mm 6 mps 756 mmHg 60%
    05:00 +10°C° 0 mm 6 mps 755 mmHg 63%
    06:00 +11°C° 0 mm 6 mps 755 mmHg 66%
    07:00 +12°C° 0 mm 7 mps 754 mmHg 64%
    08:00 +15°C° 0 mm 7 mps 753 mmHg 61%
    09:00 +17°C° 0 mm 7 mps 753 mmHg 59%
    10:00 +20°C° 0 mm 8 mps 752 mmHg 55%
    11:00 +21°C° 0 mm 8 mps 751 mmHg 52%
    12:00 +22°C° 0 mm 8 mps 751 mmHg 48%
    13:00 +22°C° 0.5 mm 7 mps 750 mmHg 53%
    14:00 +21°C° 0.5 mm 7 mps 750 mmHg 58%
    15:00 +20°C° 0.5 mm 6 mps 749 mmHg 63%
    16:00 +17°C° 1 mm 6 mps 749 mmHg 70%
    17:00 +16°C° 1 mm 5 mps 748 mmHg 77%
    18:00 +14°C° 1 mm 5 mps 748 mmHg 84%
    19:00 +13°C° 1.2 mm 5 mps 748 mmHg 87%
    20:00 +10°C° 1.2 mm 5 mps 747 mmHg 89%
    21:00 +9°C° 1.2 mm 6 mps 747 mmHg 92%
    22:00 +9°C° 0.4 mm 5 mps 748 mmHg 90%
    23:00 +8°C° 0.4 mm 5 mps 748 mmHg 88%

    28 May, Monday

    Time Temperature Precipitation Wind Pressure Humidity
    00:00 +7°C° 0.4 mm 5 mps 748 mmHg 85%
    01:00 +7°C° 0 mm 5 mps 749 mmHg 85%
    02:00 +6°C° 0 mm 5 mps 749 mmHg 84%
    03:00 +5°C° 0 mm 5 mps 750 mmHg 84%
    04:00 +5°C° 0 mm 5 mps 750 mmHg 80%
    05:00 +5°C° 0 mm 6 mps 751 mmHg 76%
    06:00 +5°C° 0 mm 6 mps 751 mmHg 73%
    07:00 +6°C° 0 mm 7 mps 751 mmHg 65%
    08:00 +8°C° 0 mm 7 mps 752 mmHg 57%
    09:00 +7°C° 0 mm 8 mps 752 mmHg 50%
    10:00 +7°C° 0 mm 8 mps 752 mmHg 49%
    11:00 +9°C° 0 mm 8 mps 752 mmHg 48%
    12:00 +9°C° 0 mm 8 mps 752 mmHg 47%
    13:00 +9°C° 0 mm 7 mps 752 mmHg 47%
    14:00 +9°C° 0 mm 7 mps 752 mmHg 47%
    15:00 +9°C° 0 mm 7 mps 753 mmHg 47%
    16:00 +9°C° 0 mm 6 mps 753 mmHg 49%
    17:00 +9°C° 0 mm 5 mps 753 mmHg 51%
    18:00 +10°C° 0 mm 4 mps 753 mmHg 54%
    19:00 +8°C° 0 mm 3 mps 753 mmHg 57%
    20:00 +7°C° 0 mm 3 mps 753 mmHg 60%
    21:00 +6°C° 0 mm 2 mps 753 mmHg 63%
    22:00 +5°C° 0 mm 2 mps 753 mmHg 65%
    23:00 +4°C° 0 mm 2 mps 753 mmHg 67%

    29 May, Tuesday

    Time Temperature Precipitation Wind Pressure Humidity
    00:00 +4°C° 0 mm 2 mps 753 mmHg 69%
    01:00 +4°C° 0 mm 2 mps 753 mmHg 68%
    02:00 +4°C° 0 mm 2 mps 753 mmHg 68%
    03:00 +4°C° 0 mm 2 mps 753 mmHg 67%
    04:00 +5°C° 0 mm 3 mps 753 mmHg 68%
    05:00 +7°C° 0 mm 3 mps 752 mmHg 69%
    06:00 +7°C° 0 mm 4 mps 752 mmHg 70%
    07:00 +7°C° 0.2 mm 4 mps 752 mmHg 72%
    08:00 +8°C° 0.2 mm 5 mps 752 mmHg 74%
    09:00 +8°C° 0.2 mm 5 mps 751 mmHg 76%
    10:00 +9°C° 0.2 mm 5 mps 751 mmHg 70%
    11:00 +10°C° 0.2 mm 6 mps 751 mmHg 63%
    12:00 +11°C° 0.2 mm 6 mps 751 mmHg 57%
    13:00 +13°C° 0.1 mm 6 mps 751 mmHg 54%
    14:00 +13°C° 0.1 mm 6 mps 751 mmHg 52%
    15:00 +13°C° 0.1 mm 6 mps 751 mmHg 50%
    16:00 +13°C° 0 mm 6 mps 751 mmHg 52%
    17:00 +12°C° 0 mm 5 mps 751 mmHg 55%
    18:00 +12°C° 0 mm 4 mps 751 mmHg 57%
    19:00 +10°C° 0 mm 4 mps 751 mmHg 63%
    20:00 +9°C° 0 mm 3 mps 751 mmHg 68%
    21:00 +7°C° 0 mm 2 mps 751 mmHg 74%
    22:00 +7°C° 0 mm 2 mps 751 mmHg 76%
    23:00 +6°C° 0 mm 2 mps 750 mmHg 78%

    30 May, Wednesday

    Time Temperature Precipitation Wind Pressure Humidity
    00:00 +6°C° 0 mm 2 mps 750 mmHg 79%
    01:00 +5°C° 0.2 mm 3 mps 749 mmHg 80%
    02:00 +7°C° 0.2 mm 3 mps 748 mmHg 80%
    03:00 +6°C° 0.2 mm 4 mps 748 mmHg 81%
    04:00 +6°C° 0.7 mm 4 mps 746 mmHg 83%
    05:00 +7°C° 0.7 mm 5 mps 745 mmHg 86%
    06:00 +8°C° 0.7 mm 6 mps 744 mmHg 88%
    07:00 +10°C° 0 mm 6 mps 743 mmHg 82%
    08:00 +14°C° 0 mm 6 mps 742 mmHg 76%
    09:00 +17°C° 0 mm 6 mps 741 mmHg 70%
    10:00 +17°C° 0.1 mm 7 mps 740 mmHg 67%
    11:00 +18°C° 0.1 mm 7 mps 739 mmHg 65%
    12:00 +20°C° 0.1 mm 8 mps 738 mmHg 62%
    13:00 +18°C° 1.3 mm 7 mps 738 mmHg 70%
    14:00 +16°C° 1.3 mm 7 mps 737 mmHg 78%
    15:00 +15°C° 1.3 mm 6 mps 737 mmHg 86%
    16:00 +14°C° 1.1 mm 6 mps 737 mmHg 85%
    17:00 +14°C° 1.1 mm 7 mps 737 mmHg 83%
    18:00 +14°C° 1.1 mm 7 mps 737 mmHg 82%
    19:00 +11°C° 0 mm 6 mps 738 mmHg 81%
    20:00 +9°C° 0 mm 5 mps 738 mmHg 81%
    21:00 +8°C° 0 mm 5 mps 739 mmHg 81%
    22:00 +7°C° 0 mm 4 mps 739 mmHg 82%
    23:00 +7°C° 0 mm 4 mps 739 mmHg 83%
    Show more